Location: UMBC
(39.2555°N, 76.7093°W)
Time: 23:09:07
(UTC+01:00)

Amateur Radio Satellites - All Passes

Search period start: 18 January 2017 22:39
Search period end: 19 January 2017 22:39
Location: UMBC, 39.2555°N, 76.7093°W

Satellite Date Start Highest point End Downlink Frequencies (MHz)
Time Altitude Azimuth
DANDE 18 Jan 22:40:19 22:46:58 32° 272° (W) 22:54:02 436.750
MOZHAYETS 4 18 Jan 22:40:47 22:44:38 26° 291° (WNW) 22:48:30
AUBIESAT-1 18 Jan 22:42:09 22:45:31 69° 289° (WNW) 22:48:47 437.475
YUBILEINY 18 Jan 22:51:10 22:56:03 16° 299° (WNW) 23:00:58 435.215
CUTE-I 18 Jan 22:54:27 22:59:12 35° 68° (ENE) 23:03:58 437.470
BEESAT 2 18 Jan 22:56:05 22:59:46 40° 116° (ESE) 23:03:32 435.950
STARS 18 Jan 22:58:57 23:03:19 72° 103° (ESE) 23:07:40 437.465
AO-7 18 Jan 23:01:49 23:05:15 13° 271° (W) 23:08:42 29.400- 29.500
HO-68 18 Jan 23:07:04 23:10:52 15° 54° (NE) 23:14:38 435.675
DOVE 4 18 Jan 23:12:32 23:17:23 47° 74° (ENE) 23:22:01 437.250
CUBESAT XI-V 18 Jan 23:19:54 23:24:34 66° 285° (WNW) 23:29:11 437.345
CINEMA 3 18 Jan 23:23:06 23:25:03 13° 65° (ENE) 23:26:59 145.822/145.860
NOAA 18 18 Jan 23:23:13 23:28:13 37° 68° (ENE) 23:33:13 137.9125
O/OREOS (USA 219) 18 Jan 23:24:10 23:28:12 33° 256° (WSW) 23:32:16 437.305
Cosmos 2504 18 Jan 23:33:18 23:37:23 14° 298° (WNW) 23:41:23 435.465 / 435.565
Cubesat XI-IV 18 Jan 23:36:14 23:41:33 84° 74° (ENE) 23:46:53 437.490
KKS-1 18 Jan 23:36:50 23:40:07 21° 293° (WNW) 23:43:23 437.445
M-CUBED/EXP-1 PRIME 18 Jan 23:40:16 23:40:56 10° 301° (WNW) 23:41:37 437.505
HORYU 2 18 Jan 23:43:36 23:47:10 24° 264° (W) 23:50:46 437.375
CUTE 1.7 + AOD 2 18 Jan 23:44:30 23:45:54 11° 63° (ENE) 23:47:17 437.475
BRITE-PL 18 Jan 23:46:37 23:50:11 17° 270° (W) 23:53:46 437.365/2234.400
NOAA 15 18 Jan 23:53:08 23:58:22 64° 258° (WSW) 00:03:40 137.62
BEESAT 3 18 Jan 23:54:39 23:57:37 20° 312° (NW) 00:00:36 437.485
GOMX 1 19 Jan 00:00:36 00:05:06 26° 265° (W) 00:09:29 467.674
LilacSat-2 19 Jan 00:01:08 00:04:38 38° 262° (W) 00:08:12 437.200
Cosmos 2499 19 Jan 00:05:39 00:09:33 14° 79° (ENE) 00:13:20 435.465 / 435.565
SO-50 19 Jan 00:09:02 00:13:00 31° 246° (WSW) 00:16:56 436.795
CANX-2 19 Jan 00:10:50 00:14:21 26° 70° (ENE) 00:17:55 2200.000
STRAND 1 19 Jan 00:14:29 00:16:52 13° 91° (E) 00:19:14 437.568
SEEDS 19 Jan 00:26:42 00:30:00 22° 68° (ENE) 00:33:18 437.485
CUBEBUG 2 19 Jan 00:31:37 00:34:06 15° 66° (ENE) 00:36:33 437.445
CUTE-I 19 Jan 00:34:44 00:39:14 28° 264° (W) 00:43:46 437.470
BEESAT 2 19 Jan 00:34:55 00:37:44 18° 313° (NW) 00:40:35 435.950
COMPASS 1 19 Jan 00:36:35 00:39:33 19° 67° (ENE) 00:42:32 437.405
STARS 19 Jan 00:38:07 00:39:03 11° 298° (WNW) 00:39:57 437.465
AAUSAT CUBESAT 2 19 Jan 00:49:56 00:53:01 20° 68° (ENE) 00:56:07 437.432
HO-68 19 Jan 00:50:15 00:57:26 79° 73° (ENE) 01:04:40 435.675
DOVE 4 19 Jan 00:51:46 00:55:13 18° 267° (W) 00:58:34 437.250
CINEMA 3 19 Jan 00:57:19 01:01:45 57° 260° (W) 01:06:01 145.822/145.860
UWE-3 19 Jan 01:03:42 01:06:52 22° 69° (ENE) 01:10:03 435.000/436.395/437.385
NOAA 18 19 Jan 01:04:13 01:08:54 28° 264° (W) 01:13:35 137.9125
FUNcube-1 19 Jan 01:06:51 01:08:41 13° 65° (ENE) 01:10:32 145.935
CUTE 1.7 + AOD 2 19 Jan 01:16:58 01:21:09 62° 259° (W) 01:25:24 437.475
Cubesat XI-IV 19 Jan 01:20:58 01:22:14 11° 271° (W) 01:23:30 437.490
ZACube-1 19 Jan 01:27:03 01:30:21 23° 69° (ENE) 01:33:39 437.345
SRMSAT 19 Jan 01:29:38 01:31:07 11° 182° (S) 01:32:36 437.500
GONETS M04 19 Jan 01:36:09 01:44:27 52° 90° (E) 01:52:49
CANX-2 19 Jan 01:46:39 01:50:07 24° 265° (W) 01:53:39 2200.000
STRAND 1 19 Jan 01:51:23 01:56:30 68° 285° (WNW) 02:01:36 437.568
Cosmos 2499 19 Jan 01:52:58 02:01:32 82° 96° (E) 02:09:31 435.465 / 435.565
SEEDS 19 Jan 02:01:52 02:05:31 28° 264° (W) 02:09:12 437.485
Oscar 11 19 Jan 02:06:12 02:10:25 57° 75° (ENE) 02:14:40 145.826/435.025
CUBEBUG 2 19 Jan 02:06:25 02:10:23 41° 261° (W) 02:14:19 437.445
COMPASS 1 19 Jan 02:11:03 02:14:51 33° 263° (W) 02:18:41 437.405
AIST 2 19 Jan 02:12:34 02:16:40 75° 302° (WNW) 02:20:51 435.215
PRISM 19 Jan 02:19:42 02:20:35 11° 91° (E) 02:21:28 437.425
AAUSAT CUBESAT 2 19 Jan 02:24:34 02:28:16 31° 263° (W) 02:32:00 437.432
DELFI C3 19 Jan 02:24:37 02:28:05 29° 70° (ENE) 02:31:34 145.870
UWE-3 19 Jan 02:39:37 02:43:11 28° 264° (W) 02:46:46 435.000/436.395/437.385
FUNcube-1 19 Jan 02:40:28 02:44:28 50° 260° (W) 02:48:31 145.935
HO-68 19 Jan 02:41:17 02:45:50 18° 269° (W) 02:50:25 435.675
ZACube-1 19 Jan 03:03:05 03:06:31 25° 264° (W) 03:09:59 437.345
HUMSAT D 19 Jan 03:30:41 03:34:46 86° 255° (WSW) 03:38:55 437.325/437.525
GONETS M04 19 Jan 03:33:58 03:41:33 33° 289° (WNW) 03:49:14
UNISAT 6 19 Jan 03:39:36 03:43:29 29° 97° (E) 03:47:25 437.425
Oscar 11 19 Jan 03:45:30 03:46:54 11° 270° (W) 03:48:18 145.826/435.025
JAS-2 19 Jan 03:47:25 03:52:26 19° 91° (E) 03:57:39 435.910
Cosmos 2499 19 Jan 03:49:48 03:55:27 19° 293° (WNW) 04:00:54 435.465 / 435.565
ESTCUBE 1 19 Jan 03:51:47 03:55:14 22° 67° (ENE) 03:58:42 437.505/2401.250
ISS 19 Jan 03:52:01 03:54:25 19° 131° (SE) 03:56:49 145.825
PRISM 19 Jan 03:52:10 03:56:13 56° 286° (WNW) 04:00:12 437.425
TIGRISAT 19 Jan 03:53:23 03:57:31 38° 98° (E) 04:01:43 435.000
DELFI C3 19 Jan 03:59:55 04:02:53 20° 266° (W) 04:05:51 145.870
BY70-1 19 Jan 04:06:03 04:08:53 54° 74° (ENE) 04:12:00 436.1900
ANTELSAT 19 Jan 04:07:56 04:12:19 60° 101° (E) 04:16:47 437.575/2403.000
AO-85 19 Jan 04:12:26 04:15:10 18° 47° (NE) 04:17:53 145.980
VELOX 1 19 Jan 04:13:02 04:15:12 14° 63° (ENE) 04:17:22 145.980
NANOSAT C BR1 19 Jan 04:42:19 04:43:29 11° 91° (E) 04:44:39 145.865
DX 1 19 Jan 04:50:53 04:53:39 17° 65° (ENE) 04:56:25 434.975-435.025
SPROUT 19 Jan 04:54:38 04:58:08 25° 69° (ENE) 05:01:40 437.525
UKube-1 19 Jan 04:54:42 04:56:43 13° 63° (ENE) 04:58:43 .
CUBEBUG 1 19 Jan 05:01:52 05:06:17 73° 75° (ENE) 05:10:41 437.445
50 SAT 19 Jan 05:10:26 05:13:44 36° 73° (ENE) 05:17:03 437.505
RS-15 19 Jan 05:12:36 05:23:48 53° 110° (ESE) 05:35:30 29.354- 29.394
AISAT 19 Jan 05:13:13 05:17:37 63° 74° (ENE) 05:22:02 437.250
UNISAT 6 19 Jan 05:16:29 05:20:03 24° 291° (WNW) 05:23:40 437.425
ISS 19 Jan 05:27:35 05:30:41 41° 327° (NNW) 05:33:49 145.825
ESTCUBE 1 19 Jan 05:27:42 05:31:48 34° 262° (W) 05:35:57 437.505/2401.250
PCSat 19 Jan 05:29:42 05:30:33 10° 101° (ESE) 05:31:23 145.827
JAS-2 19 Jan 05:30:45 05:37:54 79° 285° (WNW) 05:45:39 435.910
TIGRISAT 19 Jan 05:30:50 05:33:55 19° 293° (WNW) 05:37:04 435.000
QB50P1 19 Jan 05:30:57 05:35:01 45° 99° (E) 05:39:04 145.935-145.965
POLYITAN 1 19 Jan 05:34:27 05:38:34 51° 100° (E) 05:42:41 437.675
QB50P2 19 Jan 05:35:36 05:39:46 56° 101° (E) 05:43:55 145.880/145.840
ANTELSAT 19 Jan 05:46:34 05:48:31 13° 296° (WNW) 05:50:31 437.575/2403.000
VELOX 1 19 Jan 05:46:46 05:51:09 57° 259° (W) 05:55:33 145.980
AO-85 19 Jan 05:52:04 05:55:42 39° 244° (WSW) 05:59:22 145.980
POPSAT HIP 1 19 Jan 05:57:34 06:01:48 87° 281° (W) 06:06:01 437.405
DUCHIFAT 1 19 Jan 06:10:48 06:14:59 71° 285° (WNW) 06:19:09 145.980
AIST 1 19 Jan 06:13:44 06:16:14 15° 71° (ENE) 06:18:41
NANOSAT C BR1 19 Jan 06:15:24 06:19:32 56° 286° (WNW) 06:23:39 145.865
Oscar 19 19 Jan 06:18:28 06:20:40 13° 90° (E) 06:22:51 437.125/150
DX 1 19 Jan 06:25:18 06:29:28 43° 261° (W) 06:33:40 434.975-435.025
UKube-1 19 Jan 06:28:00 06:32:15 56° 259° (W) 06:36:31 .
TISAT 1 19 Jan 06:28:42 06:32:37 40° 72° (ENE) 06:36:32 437.305
SPROUT 19 Jan 06:30:27 06:33:58 25° 264° (W) 06:37:31 437.525
BEESAT 3 19 Jan 06:34:33 06:37:18 18° 46° (NE) 06:40:03 437.485
50 SAT 19 Jan 06:45:37 06:47:05 12° 268° (W) 06:48:33 437.505
BUGSAT 1 19 Jan 06:53:02 06:57:02 65° 284° (WNW) 07:01:02 437.445
AISAT 19 Jan 06:53:14 06:54:27 11° 269° (W) 06:55:42 437.250
YUBILEINY 19 Jan 07:00:41 07:09:12 49° 76° (ENE) 07:17:36 435.215
ISS 19 Jan 07:06:27 07:07:51 12° 346° (NNW) 07:09:16 145.825
PCSat 19 Jan 07:07:40 07:13:04 89° 117° (ESE) 07:18:31 145.827
QB50P1 19 Jan 07:08:01 07:10:23 15° 295° (WNW) 07:12:45 145.935-145.965
POLYITAN 1 19 Jan 07:11:49 07:13:55 14° 295° (WNW) 07:16:00 437.675
QB50P2 19 Jan 07:13:19 07:15:04 12° 296° (WNW) 07:16:48 145.880/145.840
BEESAT 2 19 Jan 07:15:05 07:18:09 20° 48° (NE) 07:21:11 435.950
ITUPSAT 1 19 Jan 07:17:16 07:21:19 28° 68° (ENE) 07:25:23 437.325
JAS-2 19 Jan 07:18:06 07:21:59 16° 302° (WNW) 07:26:01 435.910
RS-15 19 Jan 07:24:58 07:36:26 50° 313° (NW) 07:48:23 29.354- 29.394
Cosmos 2504 19 Jan 07:28:54 07:35:38 36° 73° (ENE) 07:42:05 435.465 / 435.565
Cosmos 2491 19 Jan 07:47:15 07:55:33 52° 89° (E) 08:03:52 435.465 / 435.565
AIST 1 19 Jan 07:50:00 07:54:01 40° 268° (W) 07:57:59
BEESAT 19 Jan 07:52:21 07:57:03 67° 74° (ENE) 08:01:47 436.000
SWISSCUBE 19 Jan 07:53:45 07:58:29 78° 75° (ENE) 08:03:16 437.505
Gurwin Techsat 1B 19 Jan 07:55:01 08:00:17 61° 101° (E) 08:05:32 435.225
AUBIESAT-1 19 Jan 07:55:03 07:56:10 11° 60° (ENE) 07:57:17 437.475
Oscar 19 19 Jan 07:55:20 08:00:29 71° 286° (WNW) 08:05:35 437.125/150
MOZHAYETS 4 19 Jan 08:04:36 08:08:18 25° 68° (ENE) 08:12:02
TISAT 1 19 Jan 08:05:57 08:08:25 15° 267° (W) 08:10:53 437.305
BEESAT 3 19 Jan 08:11:19 08:15:09 44° 243° (WSW) 08:18:56 437.485
ITAMSAT 1 19 Jan 08:34:44 08:39:10 28° 96° (E) 08:43:34 435.822/435.867
PHONESAT 2.4 19 Jan 08:44:09 08:46:20 39° 159° (SSE) 08:48:31 2401.200-2431.200
ISS 19 Jan 08:45:20 08:45:32 10° 7° (N) 08:45:44 145.825
M-CUBED/EXP-1 PRIME 19 Jan 08:47:35 08:51:54 52° 70° (ENE) 08:55:59 437.505
CUBESAT XI-V 19 Jan 08:48:14 08:49:36 11° 62° (ENE) 08:50:59 437.345
BEESAT 2 19 Jan 08:52:17 08:56:03 38° 245° (WSW) 08:59:47 435.950
PCSat 19 Jan 08:54:04 08:57:13 15° 317° (NW) 09:00:23 145.827
ITUPSAT 1 19 Jan 08:54:59 08:59:04 28° 264° (W) 09:03:11 437.325
KKS-1 19 Jan 08:56:47 09:00:37 29° 69° (ENE) 09:04:27 437.445
YUBILEINY 19 Jan 08:57:59 09:05:38 35° 275° (W) 09:13:15 435.215
AO-7 19 Jan 09:06:04 09:13:48 40° 99° (E) 09:21:27 29.400- 29.500
Cosmos 2504 19 Jan 09:22:18 09:28:57 38° 273° (W) 09:35:24 435.465 / 435.565
AUBIESAT-1 19 Jan 09:25:45 09:30:07 72° 254° (WSW) 09:34:12 437.475
CUSAT 1 19 Jan 09:30:57 09:35:44 90° 280° (W) 09:42:05 437.405
BEESAT 19 Jan 09:33:35 09:35:15 12° 269° (W) 09:36:55 436.000
Gurwin Techsat 1B 19 Jan 09:36:19 09:39:43 17° 298° (WNW) 09:43:05 435.225
MOZHAYETS 4 19 Jan 09:41:18 09:45:18 30° 264° (W) 09:49:21
RS-15 19 Jan 09:44:13 09:53:04 22° 345° (NNW) 10:02:03 29.354- 29.394
Cosmos 2491 19 Jan 09:45:01 09:52:38 33° 289° (WNW) 10:00:20 435.465 / 435.565
STARS 19 Jan 09:54:13 09:58:29 55° 73° (ENE) 10:02:46 437.465
DANDE 19 Jan 10:05:52 10:09:16 45° 92° (E) 10:13:45 436.750
BRITE-PL 19 Jan 10:13:25 10:17:05 21° 92° (E) 10:20:31 437.365/2234.400
ITAMSAT 1 19 Jan 10:13:57 10:18:37 34° 292° (WNW) 10:23:17 435.822/435.867
PHONESAT 2.4 19 Jan 10:18:07 10:20:24 62° 354° (N) 10:22:42 2401.200-2431.200
ISS 19 Jan 10:20:14 10:22:57 24° 27° (NNE) 10:25:39 145.825
CUBESAT XI-V 19 Jan 10:21:36 10:26:17 78° 258° (WSW) 10:31:02 437.345
M-CUBED/EXP-1 PRIME 19 Jan 10:24:12 10:26:31 14° 262° (W) 10:28:47 437.505
KKS-1 19 Jan 10:33:29 10:37:08 24° 264° (W) 10:40:47 437.445
AIST 2 19 Jan 10:34:47 10:38:55 49° 55° (NE) 10:43:02 435.215
AO-7 19 Jan 10:58:45 11:06:33 46° 297° (WNW) 11:14:20 29.400- 29.500
CUTE-I 19 Jan 11:13:42 11:16:34 15° 91° (E) 11:19:26 437.470
DOVE 4 19 Jan 11:15:08 11:16:11 11° 90° (E) 11:17:13 437.250
CUSAT 1 19 Jan 11:16:57 11:19:04 12° 303° (WNW) 11:21:22 437.405
STRAND 1 19 Jan 11:29:05 11:32:30 18° 64° (ENE) 11:35:55 437.568
STARS 19 Jan 11:33:17 11:35:09 12° 269° (W) 11:36:59 437.465
HORYU 2 19 Jan 11:34:17 11:38:44 66° 102° (ESE) 11:43:09 437.375
LilacSat-2 19 Jan 11:35:32 11:38:37 22° 95° (E) 11:41:42 437.200
Cosmos 2499 19 Jan 11:46:55 11:52:29 24° 69° (ENE) 11:57:56 435.465 / 435.565
NOAA 18 19 Jan 11:47:20 11:50:38 16° 92° (E) 11:53:56 137.9125
GONETS M04 19 Jan 11:48:11 11:55:04 25° 67° (ENE) 12:01:55
DANDE 19 Jan 11:51:03 11:52:44 12° 300° (WNW) 11:54:34 436.750
BRITE-PL 19 Jan 11:51:12 11:55:44 37° 290° (WNW) 11:59:55 437.365/2234.400
PHONESAT 2.4 19 Jan 11:52:18 11:54:37 87° 30° (NNE) 11:56:55 2401.200-2431.200
Cubesat XI-IV 19 Jan 11:54:45 11:59:39 36° 98° (E) 12:04:32 437.490
O/OREOS (USA 219) 19 Jan 11:56:18 12:00:12 30° 104° (ESE) 12:04:05 437.305
ISS 19 Jan 11:56:26 11:59:32 42° 224° (SW) 12:02:37 145.825
RS-15 19 Jan 12:02:23 12:11:53 24° 21° (NNE) 12:21:14 29.354- 29.394
GOMX 1 19 Jan 12:03:05 12:07:32 68° 284° (WNW) 12:11:43 467.674
NOAA 15 19 Jan 12:09:19 12:14:31 53° 100° (E) 12:19:40 137.62
AIST 2 19 Jan 12:14:34 12:16:58 15° 251° (WSW) 12:19:22 435.215
HO-68 19 Jan 12:21:34 12:25:19 15° 90° (E) 12:29:04 435.675
SO-50 19 Jan 12:45:06 12:46:06 11° 107° (ESE) 12:47:06 436.795
DOVE 4 19 Jan 12:50:10 12:54:16 53° 286° (WNW) 12:58:17 437.250
CUTE-I 19 Jan 12:51:45 12:57:02 66° 287° (WNW) 13:02:19 437.470
CINEMA 3 19 Jan 12:52:50 12:56:36 32° 97° (E) 13:00:27 145.822/145.860
CUTE 1.7 + AOD 2 19 Jan 13:03:19 13:06:48 24° 95° (E) 13:10:16 437.475
STRAND 1 19 Jan 13:06:17 13:11:14 53° 260° (W) 13:16:14 437.568
LilacSat-2 19 Jan 13:09:43 13:12:49 23° 290° (WNW) 13:15:55 437.200
HORYU 2 19 Jan 13:13:01 13:14:41 12° 298° (WNW) 13:16:22 437.375
NOAA 18 19 Jan 13:26:18 13:31:42 62° 288° (WNW) 13:37:03 137.9125
PHONESAT 2.4 19 Jan 13:26:48 13:28:32 19° 207° (SSW) 13:30:17 2401.200-2431.200
CANX-2 19 Jan 13:31:38 13:35:54 60° 100° (E) 13:40:08 2200.000
Cubesat XI-IV 19 Jan 13:35:05 13:39:33 28° 294° (WNW) 13:44:00 437.490
O/OREOS (USA 219) 19 Jan 13:35:53 13:39:34 25° 300° (WNW) 13:43:15 437.305
Cosmos 2499 19 Jan 13:39:07 13:46:02 56° 268° (W) 13:52:52 435.465 / 435.565
GONETS M04 19 Jan 13:43:53 13:52:39 71° 267° (W) 14:01:25
SEEDS 19 Jan 13:46:00 13:50:08 48° 99° (E) 13:54:14 437.485
NOAA 15 19 Jan 13:50:07 13:53:51 20° 297° (WNW) 13:57:35 137.62
COMPASS 1 19 Jan 13:54:25 13:58:23 38° 98° (E) 14:02:17 437.405
Oscar 11 19 Jan 13:56:37 13:58:06 11° 90° (E) 13:59:35 145.826/435.025
CUBEBUG 2 19 Jan 13:57:30 14:01:36 40° 98° (E) 14:05:47 437.445
HO-68 19 Jan 14:06:39 14:13:53 89° 284° (WNW) 14:21:03 435.675
AAUSAT CUBESAT 2 19 Jan 14:07:14 14:11:13 41° 98° (E) 14:15:09 437.432
RS-15 19 Jan 14:15:32 14:27:47 61° 51° (NE) 14:39:33 29.354- 29.394
PCSat 19 Jan 14:16:51 14:17:22 10° 38° (NE) 14:17:53 145.827
SO-50 19 Jan 14:21:11 14:25:55 80° 302° (WNW) 14:30:37 436.795
UWE-3 19 Jan 14:28:57 14:33:15 57° 101° (E) 14:37:39 435.000/436.395/437.385
FUNcube-1 19 Jan 14:29:08 14:33:01 31° 97° (E) 14:36:59 145.935
CINEMA 3 19 Jan 14:30:32 14:33:33 20° 292° (WNW) 14:36:37 145.822/145.860
UNISAT 6 19 Jan 14:37:59 14:41:17 22° 68° (ENE) 14:44:34 437.425
CUTE 1.7 + AOD 2 19 Jan 14:38:56 14:42:35 27° 290° (WNW) 14:46:13 437.475
PRISM 19 Jan 14:39:47 14:43:57 86° 78° (ENE) 14:48:09 437.425
ZACube-1 19 Jan 14:51:02 14:55:22 60° 101° (E) 14:59:46 437.345
TIGRISAT 19 Jan 14:51:23 14:55:01 28° 70° (ENE) 14:58:41 435.000
ANTELSAT 19 Jan 15:05:46 15:09:49 44° 73° (ENE) 15:13:53 437.575/2403.000
CANX-2 19 Jan 15:09:31 15:11:13 12° 296° (WNW) 15:12:54 2200.000
HUMSAT D 19 Jan 15:15:55 15:18:42 17° 93° (E) 15:21:29 437.325/437.525
SEEDS 19 Jan 15:23:07 15:25:23 14° 295° (WNW) 15:27:40 437.485
Oscar 11 19 Jan 15:30:17 15:34:35 58° 285° (WNW) 15:38:51 145.826/435.025
COMPASS 1 19 Jan 15:30:52 15:33:36 17° 293° (WNW) 15:36:18 437.405
CUBEBUG 2 19 Jan 15:35:03 15:37:56 18° 293° (WNW) 15:40:51 437.445
DELFI C3 19 Jan 15:36:55 15:40:51 53° 100° (E) 15:44:43 145.870
JAS-2 19 Jan 15:43:15 15:48:04 37° 67° (ENE) 15:53:18 435.910
AAUSAT CUBESAT 2 19 Jan 15:43:47 15:46:19 16° 294° (WNW) 15:48:51 437.432
GONETS M04 19 Jan 15:45:06 15:47:44 12° 286° (WNW) 15:50:23
HO-68 19 Jan 15:56:16 16:00:36 17° 305° (NW) 16:04:57 435.675
PCSat 19 Jan 15:56:37 16:01:59 56° 58° (ENE) 16:07:17 145.827
SO-50 19 Jan 16:05:08 16:07:07 12° 320° (NW) 16:09:06 436.795
FUNcube-1 19 Jan 16:05:40 16:09:05 23° 291° (WNW) 16:12:33 145.935
UWE-3 19 Jan 16:07:13 16:09:15 13° 295° (WNW) 16:11:17 435.000/436.395/437.385
UNISAT 6 19 Jan 16:14:08 16:17:50 29° 263° (W) 16:21:34 437.425
QB50P1 19 Jan 16:22:25 16:26:04 29° 70° (ENE) 16:29:42 145.935-145.965
POLYITAN 1 19 Jan 16:26:01 16:29:45 32° 71° (ENE) 16:33:30 437.675
QB50P2 19 Jan 16:27:05 16:30:55 36° 71° (ENE) 16:34:47 145.880/145.840
TIGRISAT 19 Jan 16:28:23 16:31:42 22° 265° (W) 16:35:02 435.000
RS-15 19 Jan 16:28:45 16:39:47 42° 254° (WSW) 16:50:25 29.354- 29.394
ZACube-1 19 Jan 16:29:16 16:31:09 13° 296° (WNW) 16:33:02 437.345
BY70-1 19 Jan 16:42:12 16:45:18 34° 98° (E) 16:48:13 436.1900
ANTELSAT 19 Jan 16:44:28 16:46:45 14° 268° (W) 16:49:03 437.575/2403.000
POPSAT HIP 1 19 Jan 16:48:38 16:52:45 58° 75° (ENE) 16:56:53 437.405
HUMSAT D 19 Jan 16:50:27 16:54:26 39° 288° (WNW) 16:58:26 437.325/437.525
CUBEBUG 1 19 Jan 16:53:03 16:55:20 14° 92° (E) 16:57:37 437.445
DUCHIFAT 1 19 Jan 17:01:08 17:05:16 71° 75° (ENE) 17:09:26 145.980
NANOSAT C BR1 19 Jan 17:05:55 17:10:06 89° 87° (E) 17:14:18 145.865
AISAT 19 Jan 17:06:15 17:08:08 13° 91° (E) 17:10:01 437.250
DELFI C3 19 Jan 17:13:48 17:15:09 12° 296° (WNW) 17:16:30 145.870
ESTCUBE 1 19 Jan 17:20:40 17:25:06 52° 100° (E) 17:29:30 437.505/2401.250
JAS-2 19 Jan 17:29:02 17:33:19 25° 267° (W) 17:37:55 435.910
Oscar 19 19 Jan 17:33:47 17:37:17 19° 63° (ENE) 17:40:47 437.125/150
VELOX 1 19 Jan 17:38:09 17:41:55 27° 96° (E) 17:45:39 145.980
Gurwin Techsat 1B 19 Jan 17:39:44 17:41:11 11° 59° (ENE) 17:42:38 435.225
PCSat 19 Jan 17:41:10 17:44:53 19° 255° (WSW) 17:48:35 145.827
BUGSAT 1 19 Jan 17:41:13 17:45:17 71° 75° (ENE) 17:49:19 437.445
QB50P1 19 Jan 17:58:37 18:01:49 21° 265° (W) 18:05:02 145.935-145.965
Cosmos 2491 19 Jan 17:59:23 18:06:11 24° 67° (ENE) 18:12:56 435.465 / 435.565
POLYITAN 1 19 Jan 18:02:36 18:05:36 19° 266° (W) 18:08:36 437.675
QB50P2 19 Jan 18:04:01 18:06:49 17° 267° (W) 18:09:38 145.880/145.840
50 SAT 19 Jan 18:09:49 18:13:16 47° 100° (E) 18:16:41 437.505
BY70-1 19 Jan 18:14:04 18:15:15 12° 295° (WNW) 18:16:25 436.1900
DX 1 19 Jan 18:14:28 18:18:22 32° 97° (E) 18:22:15 434.975-435.025
SPROUT 19 Jan 18:16:15 18:20:26 56° 101° (E) 18:24:36 437.525
UKube-1 19 Jan 18:16:27 18:19:59 24° 96° (E) 18:23:30 .
AO-7 19 Jan 18:19:14 18:20:49 11° 43° (NE) 18:22:24 29.400- 29.500
CUSAT 1 19 Jan 18:25:00 18:28:46 14° 59° (ENE) 18:32:28 437.405
CUBEBUG 1 19 Jan 18:27:42 18:31:52 46° 287° (WNW) 18:35:59 437.445
POPSAT HIP 1 19 Jan 18:28:01 18:28:53 11° 269° (W) 18:29:44 437.405
AISAT 19 Jan 18:40:37 18:44:55 54° 287° (WNW) 18:49:10 437.250
ESTCUBE 1 19 Jan 18:58:51 19:01:27 15° 296° (WNW) 19:04:01 437.505/2401.250
Oscar 19 19 Jan 19:11:04 19:16:08 54° 259° (W) 19:21:15 437.125/150
VELOX 1 19 Jan 19:14:39 19:18:15 25° 292° (WNW) 19:21:50 145.980
Gurwin Techsat 1B 19 Jan 19:14:59 19:20:18 86° 72° (ENE) 19:25:38 435.225
50 SAT 19 Jan 19:45:53 19:46:01 10° 295° (WNW) 19:46:09 437.505
TISAT 1 19 Jan 19:48:34 19:52:45 86° 104° (ESE) 19:56:55 437.305
DX 1 19 Jan 19:51:05 19:54:21 21° 293° (WNW) 19:57:36 434.975-435.025
ITAMSAT 1 19 Jan 19:51:35 19:56:19 38° 69° (ENE) 20:01:05 435.822/435.867
UKube-1 19 Jan 19:52:19 19:55:57 27° 291° (WNW) 19:59:34 .
SPROUT 19 Jan 19:54:01 19:55:52 13° 296° (WNW) 19:57:41 437.525
BEESAT 19 Jan 19:54:27 19:57:45 18° 93° (E) 20:01:02 436.000
Cosmos 2491 19 Jan 19:55:04 20:03:47 72° 267° (W) 20:12:32 435.465 / 435.565
SWISSCUBE 19 Jan 19:55:40 19:59:19 21° 94° (E) 20:02:57 437.505
YUBILEINY 19 Jan 19:59:46 20:08:19 59° 91° (E) 20:16:56 435.215
AO-7 19 Jan 20:03:38 20:11:35 50° 64° (ENE) 20:19:34 29.400- 29.500
CUSAT 1 19 Jan 20:04:12 20:12:12 68° 78° (ENE) 20:19:35 437.405
AO-85 19 Jan 20:04:19 20:09:06 79° 121° (ESE) 20:13:32 145.980
Cosmos 2504 19 Jan 20:05:03 20:12:37 35° 86° (E) 20:19:51 435.465 / 435.565
AIST 1 19 Jan 20:17:26 20:21:47 68° 278° (W) 20:26:09
DANDE 19 Jan 20:41:30 20:49:02 51° 76° (ENE) 20:57:06 436.750
ITUPSAT 1 19 Jan 20:55:29 21:00:19 78° 103° (ESE) 21:05:08 437.325
Gurwin Techsat 1B 19 Jan 21:00:00 21:00:52 10° 271° (W) 21:01:43 435.225
SO-50 19 Jan 21:16:33 21:16:45 10° 37° (NE) 21:16:58 436.795
BRITE-PL 19 Jan 21:21:46 21:26:27 27° 67° (ENE) 21:31:06 437.365/2234.400
BEESAT 19 Jan 21:31:09 21:35:42 44° 289° (WNW) 21:40:14 436.000
ITAMSAT 1 19 Jan 21:31:44 21:35:52 24° 265° (W) 21:40:02 435.822/435.867
SWISSCUBE 19 Jan 21:32:46 21:37:12 38° 290° (WNW) 21:41:37 437.505
GOMX 1 19 Jan 21:33:54 21:36:35 14° 63° (ENE) 21:39:12 467.674
MOZHAYETS 4 19 Jan 21:36:28 21:41:06 67° 101° (ESE) 21:45:43
CUSAT 1 19 Jan 21:47:16 21:53:23 25° 276° (W) 21:59:12 437.405
STARS 19 Jan 21:47:35 21:48:09 10° 90° (E) 21:48:45 437.465
AO-85 19 Jan 21:47:35 21:49:57 14° 316° (NW) 21:52:16 145.980
Cosmos 2491 19 Jan 21:56:15 21:58:56 12° 286° (WNW) 22:01:36 435.465 / 435.565
AO-7 19 Jan 21:57:01 22:04:29 36° 262° (W) 22:12:01 29.400- 29.500
Cosmos 2504 19 Jan 21:57:20 22:05:43 49° 283° (WNW) 22:13:40 435.465 / 435.565
YUBILEINY 19 Jan 21:58:09 22:05:35 30° 290° (WNW) 22:13:06 435.215
BEESAT 3 19 Jan 22:00:12 22:03:44 35° 115° (ESE) 22:07:20 437.485
JUGNU 19 Jan 22:01:04 22:02:26 11° 179° (S) 22:03:48 437.505
M-CUBED/EXP-1 PRIME 19 Jan 22:02:13 22:05:20 35° 103° (ESE) 22:08:21 437.505
O/OREOS (USA 219) 19 Jan 22:06:39 22:11:01 48° 65° (ENE) 22:15:24 437.305
DOVE 4 19 Jan 22:18:46 22:21:16 14° 65° (ENE) 22:23:42 437.250
LilacSat-2 19 Jan 22:19:08 22:19:33 10° 65° (ENE) 22:20:00 437.200
CUBESAT XI-V 19 Jan 22:19:37 22:23:39 28° 95° (E) 22:27:39 437.345
KKS-1 19 Jan 22:24:19 22:28:45 66° 103° (ESE) 22:33:07 437.445
DANDE 19 Jan 22:24:35 22:31:32 36° 271° (W) 22:38:55 436.750
